Year,Month,Day,Hour,Minute,Value (Times are PST for temperature in C)
2015,07,17,00,00,15.30
2015,07,17,00,01,15.30
2015,07,17,00,02,15.30
2015,07,17,00,03,15.30
2015,07,17,00,04,15.30
2015,07,17,00,05,15.30
2015,07,17,00,06,15.30
2015,07,17,00,07,15.20
2015,07,17,00,08,15.20
2015,07,17,00,09,15.20
2015,07,17,00,10,15.20
2015,07,17,00,11,15.20
2015,07,17,00,12,15.20
2015,07,17,00,13,15.20
2015,07,17,00,14,15.20
2015,07,17,00,15,15.20
2015,07,17,00,16,15.20
2015,07,17,00,17,15.20
2015,07,17,00,18,15.20
2015,07,17,00,19,15.20
2015,07,17,00,20,15.20
2015,07,17,00,21,15.20
2015,07,17,00,22,15.20
2015,07,17,00,23,15.20
2015,07,17,00,24,15.20
2015,07,17,00,25,15.20
2015,07,17,00,26,15.20
2015,07,17,00,27,15.10
2015,07,17,00,28,15.10
2015,07,17,00,29,15.10
2015,07,17,00,30,15.10
2015,07,17,00,31,15.10
2015,07,17,00,32,15.00
2015,07,17,00,33,15.00
2015,07,17,00,34,15.00
2015,07,17,00,35,14.90
2015,07,17,00,36,14.90
2015,07,17,00,37,14.90
2015,07,17,00,38,14.90
2015,07,17,00,39,14.90
2015,07,17,00,40,14.90
2015,07,17,00,41,14.90
2015,07,17,00,42,14.90
2015,07,17,00,43,14.90
2015,07,17,00,44,14.90
2015,07,17,00,45,14.80
2015,07,17,00,46,14.80
2015,07,17,00,47,14.80
2015,07,17,00,48,14.80
2015,07,17,00,49,14.80
2015,07,17,00,50,14.80
2015,07,17,00,51,14.80
2015,07,17,00,52,14.70
2015,07,17,00,53,14.70
2015,07,17,00,54,14.70
2015,07,17,00,55,14.70
2015,07,17,00,56,14.60
2015,07,17,00,57,14.60
2015,07,17,00,58,14.60
2015,07,17,00,59,14.60
2015,07,17,01,00,14.60
2015,07,17,01,01,14.60
2015,07,17,01,02,14.50
2015,07,17,01,03,14.50
2015,07,17,01,04,14.50
2015,07,17,01,05,14.40
2015,07,17,01,06,14.40
2015,07,17,01,07,14.40
2015,07,17,01,08,14.40
2015,07,17,01,09,14.40
2015,07,17,01,10,14.40
2015,07,17,01,11,14.40
2015,07,17,01,12,14.40
2015,07,17,01,13,14.30
2015,07,17,01,14,14.30
2015,07,17,01,15,14.30
2015,07,17,01,16,14.30
2015,07,17,01,17,14.30
2015,07,17,01,18,14.30
2015,07,17,01,19,14.30
2015,07,17,01,20,14.30
2015,07,17,01,21,14.30
2015,07,17,01,22,14.30
2015,07,17,01,23,14.30
2015,07,17,01,24,14.30
2015,07,17,01,25,14.30
2015,07,17,01,26,14.30
2015,07,17,01,27,14.30
2015,07,17,01,28,14.30
2015,07,17,01,29,14.30
2015,07,17,01,30,14.30
2015,07,17,01,31,14.30
2015,07,17,01,32,14.30
2015,07,17,01,33,14.30
2015,07,17,01,34,14.30
2015,07,17,01,35,14.30
2015,07,17,01,36,14.30
2015,07,17,01,37,14.30
2015,07,17,01,38,14.30
2015,07,17,01,39,14.30
2015,07,17,01,40,14.30
2015,07,17,01,41,14.30
2015,07,17,01,42,14.20
2015,07,17,01,43,14.20
2015,07,17,01,44,14.20
2015,07,17,01,45,14.20
2015,07,17,01,46,14.20
2015,07,17,01,47,14.20
2015,07,17,01,48,14.20
2015,07,17,01,49,14.20
2015,07,17,01,50,14.20
2015,07,17,01,51,14.10
2015,07,17,01,52,14.10
2015,07,17,01,53,14.10
2015,07,17,01,54,14.10
2015,07,17,01,55,14.10
2015,07,17,01,56,14.10
2015,07,17,01,57,14.10
2015,07,17,01,58,14.10
2015,07,17,01,59,14.10
2015,07,17,02,00,14.10
2015,07,17,02,01,14.10
2015,07,17,02,02,14.10
2015,07,17,02,03,14.10
2015,07,17,02,04,14.10
2015,07,17,02,05,14.10
2015,07,17,02,06,14.10
2015,07,17,02,07,14.10
2015,07,17,02,08,14.10
2015,07,17,02,09,14.10
2015,07,17,02,10,14.10
2015,07,17,02,11,14.00
2015,07,17,02,12,14.00
2015,07,17,02,13,14.00
2015,07,17,02,14,14.00
2015,07,17,02,15,13.90
2015,07,17,02,16,13.90
2015,07,17,02,17,13.90
2015,07,17,02,18,13.90
2015,07,17,02,19,13.90
2015,07,17,02,20,13.80
2015,07,17,02,21,13.80
2015,07,17,02,22,13.80
2015,07,17,02,23,13.80
2015,07,17,02,24,13.80
2015,07,17,02,25,13.80
2015,07,17,02,26,13.80
2015,07,17,02,27,13.80
2015,07,17,02,28,13.80
2015,07,17,02,29,13.80
2015,07,17,02,30,13.80
2015,07,17,02,31,13.80
2015,07,17,02,32,13.80
2015,07,17,02,33,13.80
2015,07,17,02,34,13.80
2015,07,17,02,35,13.80
2015,07,17,02,36,13.80
2015,07,17,02,37,13.80
2015,07,17,02,38,13.80
2015,07,17,02,39,13.80
2015,07,17,02,40,13.70
2015,07,17,02,41,13.70
2015,07,17,02,42,13.70
2015,07,17,02,43,13.70
2015,07,17,02,44,13.70
2015,07,17,02,45,13.70
2015,07,17,02,46,13.70
2015,07,17,02,47,13.70
2015,07,17,02,48,13.70
2015,07,17,02,49,13.70
2015,07,17,02,50,13.70
2015,07,17,02,51,13.70
2015,07,17,02,52,13.70
2015,07,17,02,53,13.60
2015,07,17,02,54,13.60
2015,07,17,02,55,13.60
2015,07,17,02,56,13.60
2015,07,17,02,57,13.60
2015,07,17,02,58,13.60
2015,07,17,02,59,13.70
2015,07,17,03,00,13.70
2015,07,17,03,01,13.70
2015,07,17,03,02,13.70
2015,07,17,03,03,13.70
2015,07,17,03,04,13.70
2015,07,17,03,05,13.70
2015,07,17,03,06,13.70
2015,07,17,03,07,13.70
2015,07,17,03,08,13.60
2015,07,17,03,09,13.60
2015,07,17,03,10,13.60
2015,07,17,03,11,13.60
2015,07,17,03,12,13.60
2015,07,17,03,13,13.60
2015,07,17,03,14,13.60
2015,07,17,03,15,13.60
2015,07,17,03,16,13.60
2015,07,17,03,17,13.60
2015,07,17,03,18,13.60
2015,07,17,03,19,13.60
2015,07,17,03,20,13.50
2015,07,17,03,21,13.50
2015,07,17,03,22,13.50
2015,07,17,03,23,13.50
2015,07,17,03,24,13.50
2015,07,17,03,25,13.40
2015,07,17,03,26,13.40
2015,07,17,03,27,13.40
2015,07,17,03,28,13.40
2015,07,17,03,29,13.40
2015,07,17,03,30,13.40
2015,07,17,03,31,13.40
2015,07,17,03,32,13.30
2015,07,17,03,33,13.30
2015,07,17,03,34,13.30
2015,07,17,03,35,13.30
2015,07,17,03,36,13.30
2015,07,17,03,37,13.30
2015,07,17,03,38,13.30
2015,07,17,03,39,13.30
2015,07,17,03,40,13.30
2015,07,17,03,41,13.30
2015,07,17,03,42,13.30
2015,07,17,03,43,13.30
2015,07,17,03,44,13.30
2015,07,17,03,45,13.30
2015,07,17,03,46,13.30
2015,07,17,03,47,13.30
2015,07,17,03,48,13.30
2015,07,17,03,49,13.30
2015,07,17,03,50,13.20
2015,07,17,03,51,13.20
2015,07,17,03,52,13.20
2015,07,17,03,53,13.20
2015,07,17,03,54,13.20
2015,07,17,03,55,13.20
2015,07,17,03,56,13.20
2015,07,17,03,57,13.20
2015,07,17,03,58,13.20
2015,07,17,03,59,13.20
2015,07,17,04,00,13.20
2015,07,17,04,01,13.20
2015,07,17,04,02,13.20
2015,07,17,04,03,13.10
2015,07,17,04,04,13.10
2015,07,17,04,05,13.10
2015,07,17,04,06,13.10
2015,07,17,04,07,13.10
2015,07,17,04,08,13.10
2015,07,17,04,09,13.10
2015,07,17,04,10,13.10
2015,07,17,04,11,13.10
2015,07,17,04,12,13.10
2015,07,17,04,13,13.10
2015,07,17,04,14,13.10
2015,07,17,04,15,13.10
2015,07,17,04,16,13.10
2015,07,17,04,17,13.10
2015,07,17,04,18,13.10
2015,07,17,04,19,13.10
2015,07,17,04,20,13.10
2015,07,17,04,21,13.00
2015,07,17,04,22,13.00
2015,07,17,04,23,13.00
2015,07,17,04,24,13.00
2015,07,17,04,25,13.00
2015,07,17,04,26,13.00
2015,07,17,04,27,12.90
2015,07,17,04,28,12.90
2015,07,17,04,29,12.90
2015,07,17,04,30,12.90
2015,07,17,04,31,12.90
2015,07,17,04,32,12.90
2015,07,17,04,33,12.90
2015,07,17,04,34,12.90
2015,07,17,04,35,12.90
2015,07,17,04,36,12.90
2015,07,17,04,37,12.80
2015,07,17,04,38,12.80
2015,07,17,04,39,12.80
2015,07,17,04,40,12.80
2015,07,17,04,41,12.80
2015,07,17,04,42,12.80
2015,07,17,04,43,12.80
2015,07,17,04,44,12.70
2015,07,17,04,45,12.70
2015,07,17,04,46,12.70
2015,07,17,04,47,12.70
2015,07,17,04,48,12.70
2015,07,17,04,49,12.70
2015,07,17,04,50,12.70
2015,07,17,04,51,12.60
2015,07,17,04,52,12.60
2015,07,17,04,53,12.60
2015,07,17,04,54,12.60
2015,07,17,04,55,12.60
2015,07,17,04,56,12.60
2015,07,17,04,57,12.50
2015,07,17,04,58,12.50
2015,07,17,04,59,12.50
2015,07,17,05,00,12.50
2015,07,17,05,01,12.50
2015,07,17,05,02,12.50
2015,07,17,05,03,12.40
2015,07,17,05,04,12.40
2015,07,17,05,05,12.40
2015,07,17,05,06,12.40
2015,07,17,05,07,12.40
2015,07,17,05,08,12.40
2015,07,17,05,09,12.40
2015,07,17,05,10,12.40
2015,07,17,05,11,12.40
2015,07,17,05,12,12.40
2015,07,17,05,13,12.40
2015,07,17,05,14,12.40
2015,07,17,05,15,12.50
2015,07,17,05,16,12.50
2015,07,17,05,17,12.50
2015,07,17,05,18,12.50
2015,07,17,05,19,12.60
2015,07,17,05,20,12.60
2015,07,17,05,21,12.60
2015,07,17,05,22,12.60
2015,07,17,05,23,12.60
2015,07,17,05,24,12.60
2015,07,17,05,25,12.60
2015,07,17,05,26,12.50
2015,07,17,05,27,12.50
2015,07,17,05,28,12.50
2015,07,17,05,29,12.50
2015,07,17,05,30,12.50
2015,07,17,05,31,12.60
2015,07,17,05,32,12.60
2015,07,17,05,33,12.60
2015,07,17,05,34,12.60
2015,07,17,05,35,12.60
2015,07,17,05,36,12.60
2015,07,17,05,37,12.60
2015,07,17,05,38,12.60
2015,07,17,05,39,12.60
2015,07,17,05,40,12.60
2015,07,17,05,41,12.60
2015,07,17,05,42,12.60
2015,07,17,05,43,12.60
2015,07,17,05,44,12.60
2015,07,17,05,45,12.60
2015,07,17,05,46,12.60
2015,07,17,05,47,12.60
2015,07,17,05,48,12.60
2015,07,17,05,49,12.60
2015,07,17,05,50,12.60
2015,07,17,05,51,12.60
2015,07,17,05,52,12.50
2015,07,17,05,53,12.60
2015,07,17,05,54,12.60
2015,07,17,05,55,12.60
2015,07,17,05,56,12.60
2015,07,17,05,57,12.60
2015,07,17,05,58,12.60
2015,07,17,05,59,12.60
2015,07,17,06,00,12.60
2015,07,17,06,01,12.60
2015,07,17,06,02,12.60
2015,07,17,06,03,12.60
2015,07,17,06,04,12.60
2015,07,17,06,05,12.60
2015,07,17,06,06,12.60
2015,07,17,06,07,12.60
2015,07,17,06,08,12.60
2015,07,17,06,09,12.60
2015,07,17,06,10,12.60
2015,07,17,06,11,12.70
2015,07,17,06,12,12.70
2015,07,17,06,13,12.70
2015,07,17,06,14,12.70
2015,07,17,06,15,12.70
2015,07,17,06,16,12.80
2015,07,17,06,17,12.80
2015,07,17,06,18,12.80
2015,07,17,06,19,12.80
2015,07,17,06,20,12.90
2015,07,17,06,21,12.90
2015,07,17,06,22,13.00
2015,07,17,06,23,13.10
2015,07,17,06,24,13.10
2015,07,17,06,25,13.20
2015,07,17,06,26,13.20
2015,07,17,06,27,13.30
2015,07,17,06,28,13.30
2015,07,17,06,29,13.30
2015,07,17,06,30,13.30
2015,07,17,06,31,13.40
2015,07,17,06,32,13.40
2015,07,17,06,33,13.40
2015,07,17,06,34,13.40
2015,07,17,06,35,13.40
2015,07,17,06,36,13.40
2015,07,17,06,37,13.40
2015,07,17,06,38,13.40
2015,07,17,06,39,13.40
2015,07,17,06,40,13.50
2015,07,17,06,41,13.50
2015,07,17,06,42,13.50
2015,07,17,06,43,13.50
2015,07,17,06,44,13.60
2015,07,17,06,45,13.60
2015,07,17,06,46,13.70
2015,07,17,06,47,13.80
2015,07,17,06,48,13.80
2015,07,17,06,49,13.90
2015,07,17,06,50,14.00
2015,07,17,06,51,14.00
2015,07,17,06,52,14.10
2015,07,17,06,53,14.20
2015,07,17,06,54,14.20
2015,07,17,06,55,14.30
2015,07,17,06,56,14.40
2015,07,17,06,57,14.40
2015,07,17,06,58,14.50
2015,07,17,06,59,14.60
2015,07,17,07,00,14.70
2015,07,17,07,01,14.80
2015,07,17,07,02,14.80
2015,07,17,07,03,14.90
2015,07,17,07,04,15.00
2015,07,17,07,05,15.10
2015,07,17,07,06,15.20
2015,07,17,07,07,15.30
2015,07,17,07,08,15.30
2015,07,17,07,09,15.40
2015,07,17,07,10,15.40
2015,07,17,07,11,15.50
2015,07,17,07,12,15.60
2015,07,17,07,13,15.60
2015,07,17,07,14,15.70
2015,07,17,07,15,15.70
2015,07,17,07,16,15.80
2015,07,17,07,17,15.80
2015,07,17,07,18,15.90
2015,07,17,07,19,16.00
2015,07,17,07,20,16.00
2015,07,17,07,21,16.10
2015,07,17,07,22,16.20
2015,07,17,07,23,16.30
2015,07,17,07,24,16.40
2015,07,17,07,25,16.50
2015,07,17,07,26,16.60
2015,07,17,07,27,16.80
2015,07,17,07,28,16.90
2015,07,17,07,29,17.00
2015,07,17,07,30,17.10
2015,07,17,07,31,17.20
2015,07,17,07,32,17.30
2015,07,17,07,33,17.40
2015,07,17,07,34,17.50
2015,07,17,07,35,17.60
2015,07,17,07,36,17.70
2015,07,17,07,37,17.80
2015,07,17,07,38,17.90
2015,07,17,07,39,18.10
2015,07,17,07,40,18.20
2015,07,17,07,41,18.30
2015,07,17,07,42,18.30
2015,07,17,07,43,18.40
2015,07,17,07,44,18.40
2015,07,17,07,45,18.50
2015,07,17,07,46,18.60
2015,07,17,07,47,18.70
2015,07,17,07,48,18.70
2015,07,17,07,49,18.80
2015,07,17,07,50,18.90
2015,07,17,07,51,19.00
2015,07,17,07,52,19.10
2015,07,17,07,53,19.20
2015,07,17,07,54,19.20
2015,07,17,07,55,19.20
2015,07,17,07,56,19.20
2015,07,17,07,57,19.10
2015,07,17,07,58,19.10
2015,07,17,07,59,19.00
2015,07,17,08,00,18.90
2015,07,17,08,01,18.90
2015,07,17,08,02,18.90
2015,07,17,08,03,18.90
2015,07,17,08,04,19.00
2015,07,17,08,05,19.00
2015,07,17,08,06,19.00
2015,07,17,08,07,19.00
2015,07,17,08,08,19.00
2015,07,17,08,09,19.10
2015,07,17,08,10,19.20
2015,07,17,08,11,19.20
2015,07,17,08,12,19.30
2015,07,17,08,13,19.30
2015,07,17,08,14,19.40
2015,07,17,08,15,19.50
2015,07,17,08,16,19.60
2015,07,17,08,17,19.60
2015,07,17,08,18,19.60
2015,07,17,08,19,19.70
2015,07,17,08,20,19.70
2015,07,17,08,21,19.70
2015,07,17,08,22,19.70
2015,07,17,08,23,19.80
2015,07,17,08,24,19.80
2015,07,17,08,25,19.80
2015,07,17,08,26,19.80
2015,07,17,08,27,19.80
2015,07,17,08,28,19.80
2015,07,17,08,29,19.90
2015,07,17,08,30,19.90
2015,07,17,08,31,19.90
2015,07,17,08,32,20.00
2015,07,17,08,33,20.10
2015,07,17,08,34,20.10
2015,07,17,08,35,20.20
2015,07,17,08,36,20.20
2015,07,17,08,37,20.10
2015,07,17,08,38,20.00
2015,07,17,08,39,20.00
2015,07,17,08,40,20.00
2015,07,17,08,41,20.00
2015,07,17,08,42,20.00
2015,07,17,08,43,20.10
2015,07,17,08,44,20.20
2015,07,17,08,45,20.30
2015,07,17,08,46,20.30
2015,07,17,08,47,20.30
2015,07,17,08,48,20.40
2015,07,17,08,49,20.40
2015,07,17,08,50,20.40
2015,07,17,08,51,20.40
2015,07,17,08,52,20.30
2015,07,17,08,53,20.30
2015,07,17,08,54,20.30
2015,07,17,08,55,20.30
2015,07,17,08,56,20.30
2015,07,17,08,57,20.30
2015,07,17,08,58,20.30
2015,07,17,08,59,20.30
2015,07,17,09,00,20.30
2015,07,17,09,01,20.30
2015,07,17,09,02,20.30
2015,07,17,09,03,20.30
2015,07,17,09,04,20.40
2015,07,17,09,05,20.30
2015,07,17,09,06,20.30
2015,07,17,09,07,20.30
2015,07,17,09,08,20.30
2015,07,17,09,09,20.30
2015,07,17,09,10,20.30
2015,07,17,09,11,20.30
2015,07,17,09,12,20.40
2015,07,17,09,13,20.50
2015,07,17,09,14,20.50
2015,07,17,09,15,20.60
2015,07,17,09,16,20.60
2015,07,17,09,17,20.60
2015,07,17,09,18,20.60
2015,07,17,09,19,20.60
2015,07,17,09,20,20.60
2015,07,17,09,21,20.60
2015,07,17,09,22,20.50
2015,07,17,09,23,20.50
2015,07,17,09,24,20.50
2015,07,17,09,25,20.50
2015,07,17,09,26,20.60
2015,07,17,09,27,20.70
2015,07,17,09,28,20.70
2015,07,17,09,29,20.70
2015,07,17,09,30,20.70
2015,07,17,09,31,20.70
2015,07,17,09,32,20.70
2015,07,17,09,33,20.80
2015,07,17,09,34,20.80
2015,07,17,09,35,20.90
2015,07,17,09,36,20.90
2015,07,17,09,37,20.90
2015,07,17,09,38,20.90
2015,07,17,09,39,20.90
2015,07,17,09,40,20.80
2015,07,17,09,41,20.80
2015,07,17,09,42,20.80
2015,07,17,09,43,20.70
2015,07,17,09,44,20.60
2015,07,17,09,45,20.60
2015,07,17,09,46,20.60
2015,07,17,09,47,20.70
2015,07,17,09,48,20.70
2015,07,17,09,49,20.60
2015,07,17,09,50,20.50
2015,07,17,09,51,20.50
2015,07,17,09,52,20.50
2015,07,17,09,53,20.50
2015,07,17,09,54,20.60
2015,07,17,09,55,20.60
2015,07,17,09,56,20.70
2015,07,17,09,57,20.70
2015,07,17,09,58,20.70
2015,07,17,09,59,20.80
2015,07,17,10,00,20.80
2015,07,17,10,01,20.70
2015,07,17,10,02,20.60
2015,07,17,10,03,20.50
2015,07,17,10,04,20.40
2015,07,17,10,05,20.40
2015,07,17,10,06,20.30
2015,07,17,10,07,20.30
2015,07,17,10,08,20.30
2015,07,17,10,09,20.30
2015,07,17,10,10,20.30
2015,07,17,10,11,20.40
2015,07,17,10,12,20.60
2015,07,17,10,13,20.60
2015,07,17,10,14,20.70
2015,07,17,10,15,20.80
2015,07,17,10,16,20.80
2015,07,17,10,17,20.80
2015,07,17,10,18,20.90
2015,07,17,10,19,20.90
2015,07,17,10,20,21.00
2015,07,17,10,21,21.20
2015,07,17,10,22,21.30
2015,07,17,10,23,21.40
2015,07,17,10,24,21.50
2015,07,17,10,25,21.50
2015,07,17,10,26,21.60
2015,07,17,10,27,21.60
2015,07,17,10,28,21.60
2015,07,17,10,29,21.60
2015,07,17,10,30,21.60
2015,07,17,10,31,21.70
2015,07,17,10,32,21.70
2015,07,17,10,33,21.70
2015,07,17,10,34,21.70
2015,07,17,10,35,21.70
2015,07,17,10,36,21.70
2015,07,17,10,37,21.70
2015,07,17,10,38,21.80
2015,07,17,10,39,21.80
2015,07,17,10,40,21.80
2015,07,17,10,41,21.80
2015,07,17,10,42,21.80
2015,07,17,10,43,21.90
2015,07,17,10,44,21.90
2015,07,17,10,45,21.90
2015,07,17,10,46,21.90
2015,07,17,10,47,21.90
2015,07,17,10,48,21.80
2015,07,17,10,49,21.80
2015,07,17,10,50,21.70
2015,07,17,10,51,21.70
2015,07,17,10,52,21.60
2015,07,17,10,53,21.70
2015,07,17,10,54,21.70
2015,07,17,10,55,21.80
2015,07,17,10,56,21.80
2015,07,17,10,57,21.80
2015,07,17,10,58,21.90
2015,07,17,10,59,21.90
2015,07,17,11,00,21.90
2015,07,17,11,01,21.80
2015,07,17,11,02,21.80
2015,07,17,11,03,21.80
2015,07,17,11,04,21.80
2015,07,17,11,05,21.80
2015,07,17,11,06,21.90
2015,07,17,11,07,22.00
2015,07,17,11,08,22.10
2015,07,17,11,09,22.20
2015,07,17,11,10,22.20
2015,07,17,11,11,22.20
2015,07,17,11,12,22.20
2015,07,17,11,13,22.10
2015,07,17,11,14,22.10
2015,07,17,11,15,22.10
2015,07,17,11,16,22.00
2015,07,17,11,17,22.10
2015,07,17,11,18,22.10
2015,07,17,11,19,22.10
2015,07,17,11,20,22.00
2015,07,17,11,21,22.00
2015,07,17,11,22,22.00
2015,07,17,11,23,22.00
2015,07,17,11,24,22.00
2015,07,17,11,25,22.00
2015,07,17,11,26,22.10
2015,07,17,11,27,22.10
2015,07,17,11,28,22.20
2015,07,17,11,29,22.20
2015,07,17,11,30,22.20
2015,07,17,11,31,22.20
2015,07,17,11,32,22.30
2015,07,17,11,33,22.30
2015,07,17,11,34,22.30
2015,07,17,11,35,22.40
2015,07,17,11,36,22.40
2015,07,17,11,37,22.60
2015,07,17,11,38,22.60
2015,07,17,11,39,22.70
2015,07,17,11,40,22.70
2015,07,17,11,41,22.80
2015,07,17,11,42,22.70
2015,07,17,11,43,22.70
2015,07,17,11,44,22.60
2015,07,17,11,45,22.60
2015,07,17,11,46,22.60
2015,07,17,11,47,22.60
2015,07,17,11,48,22.60
2015,07,17,11,49,22.70
2015,07,17,11,50,22.80
2015,07,17,11,51,22.80
2015,07,17,11,52,22.80
2015,07,17,11,53,22.70
2015,07,17,11,54,22.70
2015,07,17,11,55,22.70
2015,07,17,11,56,22.70
2015,07,17,11,57,22.70
2015,07,17,11,58,22.70
2015,07,17,11,59,22.70
2015,07,17,12,00,22.70
2015,07,17,12,01,22.70
2015,07,17,12,02,22.70
2015,07,17,12,03,22.70
2015,07,17,12,04,22.70
2015,07,17,12,05,22.70
2015,07,17,12,06,22.70
2015,07,17,12,07,22.70
2015,07,17,12,08,22.70
2015,07,17,12,09,22.80
2015,07,17,12,10,22.80
2015,07,17,12,11,22.90
2015,07,17,12,12,23.00
2015,07,17,12,13,23.10
2015,07,17,12,14,23.20
2015,07,17,12,15,23.30
2015,07,17,12,16,23.30
2015,07,17,12,17,23.40
2015,07,17,12,18,23.40
2015,07,17,12,19,23.40
2015,07,17,12,20,23.50
2015,07,17,12,21,23.50
2015,07,17,12,22,23.60
2015,07,17,12,23,23.60
2015,07,17,12,24,23.60
2015,07,17,12,25,23.70
2015,07,17,12,26,23.80
2015,07,17,12,27,23.80
2015,07,17,12,28,23.70
2015,07,17,12,29,23.70
2015,07,17,12,30,23.70
2015,07,17,12,31,23.70
2015,07,17,12,32,23.70
2015,07,17,12,33,23.70
2015,07,17,12,34,23.80
2015,07,17,12,35,23.90
2015,07,17,12,36,24.00
2015,07,17,12,37,24.10
2015,07,17,12,38,24.20
2015,07,17,12,39,24.20
2015,07,17,12,40,24.20
2015,07,17,12,41,24.20
2015,07,17,12,42,24.20
2015,07,17,12,43,24.20
2015,07,17,12,44,24.30
2015,07,17,12,45,24.30
2015,07,17,12,46,24.40
2015,07,17,12,47,24.50
2015,07,17,12,48,24.50
2015,07,17,12,49,24.50
2015,07,17,12,50,24.40
2015,07,17,12,51,24.40
2015,07,17,12,52,24.30
2015,07,17,12,53,24.30
2015,07,17,12,54,24.20
2015,07,17,12,55,24.20
2015,07,17,12,56,24.10
2015,07,17,12,57,23.80
2015,07,17,12,58,23.60
2015,07,17,12,59,23.30
2015,07,17,13,00,23.00
2015,07,17,13,01,22.80
2015,07,17,13,02,22.70
2015,07,17,13,03,22.60
2015,07,17,13,04,22.50
2015,07,17,13,05,22.50
2015,07,17,13,06,22.50
2015,07,17,13,07,22.50
2015,07,17,13,08,22.40
2015,07,17,13,09,22.40
2015,07,17,13,10,22.40
2015,07,17,13,11,22.40
2015,07,17,13,12,22.40
2015,07,17,13,13,22.30
2015,07,17,13,14,22.30
2015,07,17,13,15,22.20
2015,07,17,13,16,22.20
2015,07,17,13,17,22.20
2015,07,17,13,18,22.20
2015,07,17,13,19,22.20
2015,07,17,13,20,22.20
2015,07,17,13,21,22.30
2015,07,17,13,22,22.40
2015,07,17,13,23,22.60
2015,07,17,13,24,22.70
2015,07,17,13,25,22.80
2015,07,17,13,26,22.90
2015,07,17,13,27,23.00
2015,07,17,13,28,23.10
2015,07,17,13,29,23.20
2015,07,17,13,30,23.30
2015,07,17,13,31,23.20
2015,07,17,13,32,23.20
2015,07,17,13,33,23.20
2015,07,17,13,34,23.20
2015,07,17,13,35,23.10
2015,07,17,13,36,23.10
2015,07,17,13,37,23.00
2015,07,17,13,38,23.00
2015,07,17,13,39,22.90
2015,07,17,13,40,22.90
2015,07,17,13,41,22.90
2015,07,17,13,42,22.90
2015,07,17,13,43,22.90
2015,07,17,13,44,22.90
2015,07,17,13,45,23.00
2015,07,17,13,46,23.00
2015,07,17,13,47,23.10
2015,07,17,13,48,23.20
2015,07,17,13,49,23.30
2015,07,17,13,50,23.40
2015,07,17,13,51,23.50
2015,07,17,13,52,23.60
2015,07,17,13,53,23.70
2015,07,17,13,54,23.80
2015,07,17,13,55,23.80
2015,07,17,13,56,23.90
2015,07,17,13,57,23.90
2015,07,17,13,58,24.00
2015,07,17,13,59,24.10
2015,07,17,14,00,24.10
2015,07,17,14,01,24.20
2015,07,17,14,02,24.10
2015,07,17,14,03,23.90
2015,07,17,14,04,23.80
2015,07,17,14,05,23.80
2015,07,17,14,06,23.80
2015,07,17,14,07,23.80
2015,07,17,14,08,23.80
2015,07,17,14,09,23.80
2015,07,17,14,10,23.90
2015,07,17,14,11,23.90
2015,07,17,14,12,23.90
2015,07,17,14,13,24.00
2015,07,17,14,14,24.10
2015,07,17,14,15,24.10
2015,07,17,14,16,24.20
2015,07,17,14,17,24.10
2015,07,17,14,18,24.10
2015,07,17,14,19,24.10
2015,07,17,14,20,24.10
2015,07,17,14,21,24.20
2015,07,17,14,22,24.20
2015,07,17,14,23,24.20
2015,07,17,14,24,24.10
2015,07,17,14,25,24.00
2015,07,17,14,26,23.90
2015,07,17,14,27,23.90
2015,07,17,14,28,23.90
2015,07,17,14,29,23.90
2015,07,17,14,30,23.90
2015,07,17,14,31,23.90
2015,07,17,14,32,24.00
2015,07,17,14,33,24.10
2015,07,17,14,34,24.20
2015,07,17,14,35,24.20
2015,07,17,14,36,24.20
2015,07,17,14,37,24.10
2015,07,17,14,38,24.00
2015,07,17,14,39,24.00
2015,07,17,14,40,24.00
2015,07,17,14,41,24.00
2015,07,17,14,42,24.10
2015,07,17,14,43,24.10
2015,07,17,14,44,24.10
2015,07,17,14,45,24.10
2015,07,17,14,46,24.00
2015,07,17,14,47,24.00
2015,07,17,14,48,24.00
2015,07,17,14,49,24.10
2015,07,17,14,50,24.20
2015,07,17,14,51,24.30
2015,07,17,14,52,24.30
2015,07,17,14,53,24.30
2015,07,17,14,54,24.30
2015,07,17,14,55,24.30
2015,07,17,14,56,24.40
2015,07,17,14,57,24.40
2015,07,17,14,58,24.50
2015,07,17,14,59,24.50
2015,07,17,15,00,24.50
2015,07,17,15,01,24.50
2015,07,17,15,02,24.60
2015,07,17,15,03,24.70
2015,07,17,15,04,24.70
2015,07,17,15,05,24.80
2015,07,17,15,06,24.80
2015,07,17,15,07,24.90
2015,07,17,15,08,25.00
2015,07,17,15,09,25.10
2015,07,17,15,10,25.30
2015,07,17,15,11,25.50
2015,07,17,15,12,25.70
2015,07,17,15,13,26.00
2015,07,17,15,14,26.20
2015,07,17,15,15,26.40
2015,07,17,15,16,26.50
2015,07,17,15,17,26.70
2015,07,17,15,18,26.80
2015,07,17,15,19,27.00
2015,07,17,15,20,27.20
2015,07,17,15,21,27.30
2015,07,17,15,22,27.40
2015,07,17,15,23,27.30
2015,07,17,15,24,27.10
2015,07,17,15,25,26.90
2015,07,17,15,26,26.70
2015,07,17,15,27,26.60
2015,07,17,15,28,26.40
2015,07,17,15,29,26.20
2015,07,17,15,30,26.00
2015,07,17,15,31,26.00
2015,07,17,15,32,25.90
2015,07,17,15,33,25.90
2015,07,17,15,34,25.90
2015,07,17,15,35,26.00
2015,07,17,15,36,26.10
2015,07,17,15,37,26.30
2015,07,17,15,38,26.40
2015,07,17,15,39,26.40
2015,07,17,15,40,26.40
2015,07,17,15,41,26.40
2015,07,17,15,42,26.40
2015,07,17,15,43,26.50
2015,07,17,15,44,26.60
2015,07,17,15,45,26.60
2015,07,17,15,46,26.70
2015,07,17,15,47,26.70
2015,07,17,15,48,26.60
2015,07,17,15,49,26.50
2015,07,17,15,50,26.40
2015,07,17,15,51,26.40
2015,07,17,15,52,26.30
2015,07,17,15,53,26.20
2015,07,17,15,54,26.10
2015,07,17,15,55,26.10
2015,07,17,15,56,26.00
2015,07,17,15,57,26.00
2015,07,17,15,58,26.10
2015,07,17,15,59,26.20
2015,07,17,16,00,26.30
2015,07,17,16,01,26.40
2015,07,17,16,02,26.50
2015,07,17,16,03,26.50
2015,07,17,16,04,26.50
2015,07,17,16,05,26.40
2015,07,17,16,06,26.40
2015,07,17,16,07,26.40
2015,07,17,16,08,26.30
2015,07,17,16,09,26.30
2015,07,17,16,10,26.20
2015,07,17,16,11,26.10
2015,07,17,16,12,26.10
2015,07,17,16,13,26.00
2015,07,17,16,14,25.90
2015,07,17,16,15,25.80
2015,07,17,16,16,25.70
2015,07,17,16,17,25.60
2015,07,17,16,18,25.50
2015,07,17,16,19,25.50
2015,07,17,16,20,25.50
2015,07,17,16,21,25.40
2015,07,17,16,22,25.40
2015,07,17,16,23,25.30
2015,07,17,16,24,25.20
2015,07,17,16,25,25.20
2015,07,17,16,26,25.10
2015,07,17,16,27,25.10
2015,07,17,16,28,25.10
2015,07,17,16,29,25.10
2015,07,17,16,30,25.10
2015,07,17,16,31,25.10
2015,07,17,16,32,25.10
2015,07,17,16,33,25.20
2015,07,17,16,34,25.30
2015,07,17,16,35,25.30
2015,07,17,16,36,25.40
2015,07,17,16,37,25.50
2015,07,17,16,38,25.50
2015,07,17,16,39,25.40
2015,07,17,16,40,25.40
2015,07,17,16,41,25.30
2015,07,17,16,42,25.20
2015,07,17,16,43,25.10
2015,07,17,16,44,25.10
2015,07,17,16,45,25.10
2015,07,17,16,46,25.00
2015,07,17,16,47,25.10
2015,07,17,16,48,25.10
2015,07,17,16,49,25.10
2015,07,17,16,50,25.30
2015,07,17,16,51,25.40
2015,07,17,16,52,25.50
2015,07,17,16,53,25.60
2015,07,17,16,54,25.60
2015,07,17,16,55,25.60
2015,07,17,16,56,25.70
2015,07,17,16,57,25.70
2015,07,17,16,58,25.80
2015,07,17,16,59,25.70
2015,07,17,17,00,25.70
2015,07,17,17,01,25.60
2015,07,17,17,02,25.60
2015,07,17,17,03,25.60
2015,07,17,17,04,25.60
2015,07,17,17,05,25.60
2015,07,17,17,06,25.70
2015,07,17,17,07,25.70
2015,07,17,17,08,25.80
2015,07,17,17,09,25.80
2015,07,17,17,10,25.80
2015,07,17,17,11,25.90
2015,07,17,17,12,25.90
2015,07,17,17,13,25.90
2015,07,17,17,14,26.00
2015,07,17,17,15,26.10
2015,07,17,17,16,26.10
2015,07,17,17,17,26.20
2015,07,17,17,18,26.30
2015,07,17,17,19,26.30